GFSNE_850_dewp_174.txt.gz
Dewpoint
-17 -17 -18 -19 -20 -22 -24 -25 -14 -11 -12 -13 -11 -19 -22 -27 -28 -26 -24 -20 -24 -26 -25 -24 -25 -26 -27 -28 -25 -14 -6 -4 -4 -2 -0 1 2 2
-17 -18 -20 -21 -23 -25 -26 -25 -22 -11 -9 -12 -11 -10 -16 -27 -28 -25 -22 -22 -19 -17 -18 -18 -18 -18 -12 -9 -10 -11 -3 -3 -3 -2 -2 -1 1 1
-18 -20 -22 -25 -26 -27 -26 -25 -24 -18 -9 -9 -9 -8 -6 -6 -6 -8 -10 -8 -6 -6 -10 -10 -8 -6 -5 -5 -5 -4 -4 -4 -3 -3 -2 -2 -1 -1
-21 -24 -27 -29 -29 -28 -27 -26 -23 -18 -9 -7 -6 -6 -6 -5 -6 -6 -6 -6 -7 -7 -6 -9 -7 -6 -6 -5 -5 -5 -5 -5 -5 -3 -3 -3 -3 -2
-27 -30 -31 -30 -29 -26 -24 -20 -14 -11 -7 -6 -6 -5 -6 -6 -6 -6 -7 -7 -7 -8 -7 -7 -7 -6 -6 -6 -6 -6 -6 -6 -6 -6 -6 -5 -4 -3
-30 -30 -29 -27 -25 -22 -20 -16 -13 -7 -6 -6 -6 -6 -7 -7 -7 -8 -7 -7 -7 -7 -7 -6 -6 -6 -7 -6 -6 -6 -6 -6 -7 -7 -6 -6 -6 -4
-29 -28 -25 -22 -21 -20 -18 -17 -10 -6 -6 -7 -7 -7 -7 -8 -7 -7 -6 -7 -7 -7 -6 -7 -8 -8 -8 -7 -7 -6 -6 -7 -7 -7 -7 -5 -5 -5
-26 -23 -22 -22 -21 -20 -18 -13 -10 -6 -6 -6 -7 -7 -7 -7 -7 -6 -6 -6 -7 -7 -7 -8 -8 -8 -8 -8 -8 -7 -8 -7 -7 -6 -6 -6 -5 -5
-22 -22 -23 -21 -19 -18 -11 -6 -6 -6 -6 -7 -7 -8 -8 -8 -7 -7 -7 -8 -9 -8 -8 -9 -8 -8 -8 -8 -7 -7 -7 -9 -7 -6 -6 -6 -6 -6
-22 -22 -20 -18 -14 -13 -6 -6 -6 -7 -7 -10 -9 -8 -7 -8 -8 -8 -8 -8 -8 -8 -8 -9 -8 -8 -8 -8 -8 -8 -9 -9 -7 -7 -7 -7 -7 -5
-22 -20 -16 -15 -13 -8 -6 -6 -6 -7 -8 -8 -8 -7 -8 -9 -9 -9 -8 -9 -9 -9 -9 -9 -9 -9 -8 -8 -8 -8 -8 -7 -7 -7 -7 -7 -6 -6
-20 -16 -14 -15 -12 -8 -7 -6 -7 -8 -8 -8 -8 -8 -9 -9 -9 -9 -9 -9 -9 -10 -9 -9 -8 -8 -8 -8 -8 -9 -8 -8 -7 -7 -7 -7 -6 -6
-14 -9 -9 -13 -12 -8 -8 -8 -9 -8 -8 -8 -9 -9 -9 -9 -9 -9 -9 -9 -9 -10 -9 -9 -9 -9 -9 -9 -8 -9 -8 -8 -7 -7 -7 -7 -7 -6
-9 -7 -8 -8 -9 -14 -14 -12 -11 -10 -9 -9 -9 -9 -9 -10 -10 -10 -10 -9 -10 -10 -9 -9 -9 -9 -9 -9 -9 -9 -9 -8 -7 -7 -7 -7 -7 -7
-12 -10 -9 -14 -14 -13 -12 -12 -11 -9 -9 -10 -10 -10 -10 -10 -10 -10 -10 -10 -11 -11 -11 -10 -9 -9 -10 -9 -9 -9 -8 -8 -8 -7 -7 -7 -7 -7
-8 -8 -12 -13 -12 -11 -10 -10 -9 -10 -10 -10 -10 -10 -10 -10 -10 -10 -10 -10 -10 -10 -11 -10 -9 -9 -9 -9 -9 -10 -9 -7 -7 -7 -7 -9 -7 -7
-12 -11 -12 -12 -11 -11 -10 -10 -10 -10 -10 -11 -11 -11 -11 -11 -10 -10 -10 -10 -10 -10 -10 -11 -10 -9 -9 -10 -9 -9 -8 -8 -8 -7 -8 -8 -8 -7
-13 -14 -16 -14 -12 -10 -10 -10 -11 -11 -11 -11 -11 -11 -11 -11 -11 -10 -11 -10 -11 -10 -10 -10 -9 -10 -10 -10 -8 -9 -9 -9 -8 -8 -8 -8 -8 -8
-15 -15 -15 -11 -10 -10 -11 -11 -11 -11 -11 -11 -11 -11 -11 -11 -11 -11 -10 -11 -11 -10 -10 -10 -10 -9 -10 -9 -10 -9 -9 -9 -8 -8 -8 -8 -8 -10
-14 -14 -11 -10 -10 -11 -11 -11 -11 -11 -12 -11 -11 -11 -10 -10 -10 -10 -11 -11 -11 -11 -10 -10 -10 -10 -10 -10 -10 -11 -10 -9 -9 -9 -9 -9 -9 -10
-12 -11 -11 -11 -11 -11 -11 -11 -11 -11 -12 -12 -11 -11 -10 -10 -11 -11 -11 -11 -11 -11 -11 -11 -10 -10 -10 -10 -10 -10 -9 -9 -9 -9 -9 -9 -9 -9
-11 -10 -10 -11 -11 -11 -11 -11 -11 -11 -13 -14 -11 -11 -11 -11 -11 -11 -11 -12 -12 -12 -11 -11 -11 -11 -11 -11 -10 -10 -10 -10 -11 -11 -11 -11 -10 -9
-11 -10 -11 -11 -11 -11 -11 -11 -11 -11 -13 -13 -13 -11 -11 -11 -11 -12 -12 -12 -12 -12 -12 -12 -12 -11 -12 -12 -12 -12 -13 -13 -13 -13 -13 -13 -13 -13

GFSNE_850_dewp_177.txt.gz
Dewpoint
-15 -15 -17 -18 -19 -21 -24 -26 -21 -10 -13 -18 -14 -19 -21 -20 -16 -15 -13 -13 -15 -9 -6 -5 -5 -4 -5 -5 -4 -4 -3 -3 -3 -2 -2 -2 -1 -1
-17 -17 -19 -21 -24 -27 -28 -27 -22 -14 -9 -15 -15 -13 -12 -13 -16 -13 -17 -17 -14 -6 -5 -5 -5 -5 -5 -5 -5 -4 -4 -4 -3 -3 -3 -2 -2 -2
-17 -21 -23 -28 -30 -28 -28 -26 -22 -15 -10 -11 -10 -9 -8 -7 -7 -10 -10 -11 -9 -7 -6 -6 -6 -5 -5 -5 -5 -5 -5 -5 -5 -4 -4 -4 -2 -2
-23 -27 -31 -30 -28 -25 -24 -20 -16 -12 -8 -7 -8 -6 -8 -12 -8 -6 -7 -7 -7 -7 -7 -7 -7 -6 -6 -6 -6 -6 -6 -6 -6 -5 -5 -4 -4 -4
-30 -31 -30 -29 -26 -23 -21 -19 -16 -13 -11 -6 -8 -12 -11 -7 -7 -7 -7 -7 -8 -9 -7 -7 -6 -6 -6 -6 -6 -6 -6 -6 -6 -5 -5 -6 -6 -6
-31 -30 -28 -24 -23 -22 -23 -22 -18 -15 -9 -7 -8 -7 -6 -8 -7 -7 -7 -8 -8 -8 -8 -10 -7 -7 -7 -7 -7 -7 -7 -7 -6 -6 -7 -7 -6 -6
-30 -25 -24 -24 -24 -24 -23 -22 -20 -14 -9 -7 -7 -7 -7 -7 -7 -7 -7 -7 -8 -8 -9 -8 -8 -10 -10 -9 -8 -7 -7 -7 -7 -7 -6 -6 -6 -6
-24 -24 -23 -23 -23 -23 -23 -20 -11 -7 -6 -6 -6 -7 -7 -8 -8 -7 -8 -9 -8 -9 -8 -8 -8 -10 -9 -9 -8 -7 -7 -7 -6 -6 -6 -6 -6 -6
-24 -23 -23 -22 -22 -19 -17 -9 -7 -6 -6 -6 -7 -8 -9 -9 -8 -8 -9 -9 -9 -10 -9 -9 -9 -9 -9 -9 -8 -8 -7 -7 -7 -7 -7 -7 -7 -6
-23 -23 -23 -22 -18 -15 -15 -9 -7 -7 -7 -7 -8 -9 -8 -8 -8 -9 -9 -10 -10 -11 -10 -10 -11 -11 -10 -11 -10 -7 -7 -7 -7 -7 -6 -6 -6 -6
-22 -21 -20 -19 -15 -16 -8 -6 -7 -7 -8 -9 -8 -8 -8 -8 -8 -9 -9 -9 -10 -10 -11 -9 -10 -10 -9 -11 -9 -8 -9 -8 -7 -7 -6 -7 -6 -6
-22 -17 -11 -10 -14 -15 -6 -7 -9 -11 -10 -9 -9 -9 -9 -9 -9 -9 -9 -10 -10 -10 -11 -9 -9 -10 -8 -9 -10 -12 -11 -9 -8 -7 -6 -7 -6 -7
-18 -13 -11 -11 -18 -16 -12 -15 -12 -9 -9 -9 -9 -9 -9 -9 -10 -10 -10 -10 -10 -10 -11 -9 -10 -10 -9 -9 -9 -11 -10 -10 -9 -9 -8 -8 -7 -6
-16 -13 -14 -18 -17 -18 -18 -15 -13 -9 -9 -9 -9 -10 -10 -10 -10 -10 -10 -10 -10 -10 -10 -10 -9 -10 -9 -9 -9 -11 -10 -10 -9 -8 -7 -7 -8 -8
-14 -15 -15 -11 -16 -18 -14 -10 -9 -9 -9 -10 -10 -10 -10 -10 -10 -10 -10 -10 -10 -10 -10 -10 -9 -9 -10 -9 -9 -10 -9 -10 -9 -8 -8 -7 -8 -7
-12 -14 -16 -17 -16 -11 -9 -9 -9 -10 -10 -10 -10 -10 -10 -11 -11 -11 -11 -11 -10 -11 -12 -11 -10 -10 -10 -10 -9 -9 -9 -9 -9 -8 -8 -8 -9 -9
-15 -15 -15 -13 -11 -9 -9 -10 -11 -10 -10 -11 -11 -11 -11 -11 -11 -11 -11 -11 -11 -11 -11 -11 -11 -10 -10 -10 -10 -10 -9 -9 -9 -9 -9 -8 -9 -8
-14 -14 -12 -11 -10 -10 -11 -12 -11 -10 -11 -11 -11 -11 -11 -11 -11 -11 -11 -11 -11 -11 -11 -11 -10 -10 -11 -11 -10 -9 -10 -9 -10 -9 -9 -9 -9 -10
-12 -12 -12 -11 -11 -11 -11 -11 -10 -11 -11 -11 -12 -11 -11 -11 -11 -11 -11 -11 -11 -11 -11 -11 -11 -11 -10 -10 -11 -11 -10 -10 -9 -9 -9 -9 -9 -10
-12 -12 -13 -12 -12 -11 -10 -11 -11 -11 -11 -11 -12 -12 -11 -11 -11 -11 -12 -12 -11 -12 -12 -11 -11 -11 -11 -10 -11 -11 -11 -9 -10 -10 -10 -10 -11 -10
-12 -11 -12 -11 -10 -11 -11 -11 -11 -11 -12 -12 -12 -13 -12 -11 -11 -11 -12 -12 -11 -12 -12 -12 -12 -12 -11 -11 -12 -13 -13 -13 -11 -11 -11 -10 -10 -10
-11 -11 -11 -10 -11 -11 -11 -11 -11 -12 -12 -11 -12 -12 -12 -12 -12 -12 -12 -12 -12 -12 -13 -12 -13 -13 -12 -12 -12 -12 -13 -14 -14 -14 -13 -12 -10 -10
-12 -12 -11 -11 -11 -11 -11 -11 -12 -12 -12 -12 -12 -12 -12 -12 -12 -12 -12 -12 -12 -12 -12 -12 -13 -13 -12 -12 -12 -12 -13 -13 -13 -13 -13 -13 -13 -13

GFSNE_850_dewp_183.txt.gz
Dewpoint
-14 -15 -15 -16 -16 -27 -30 -30 -29 -28 -26 -19 -19 -19 -21 -21 -20 -20 -18 -17 -16 -15 -10 -5 -5 -5 -5 -5 -4 -4 -4 -5 -5 -4 -4 -4 -3 -3
-15 -16 -18 -23 -31 -30 -29 -27 -26 -26 -25 -22 -20 -20 -21 -21 -19 -17 -17 -16 -16 -14 -7 -6 -8 -5 -5 -4 -5 -4 -5 -5 -6 -6 -5 -5 -5 -4
-16 -19 -29 -31 -30 -27 -25 -26 -26 -25 -21 -21 -21 -22 -22 -18 -18 -17 -15 -14 -13 -12 -10 -12 -10 -6 -6 -6 -5 -5 -6 -6 -6 -6 -6 -7 -5 -4
-19 -31 -31 -28 -26 -25 -26 -27 -26 -22 -18 -20 -22 -21 -18 -16 -14 -14 -13 -12 -11 -11 -12 -13 -12 -10 -7 -6 -6 -6 -6 -6 -7 -7 -6 -6 -7 -7
-31 -30 -27 -26 -25 -27 -27 -26 -25 -24 -21 -18 -16 -15 -15 -13 -14 -13 -13 -12 -12 -12 -13 -13 -13 -11 -9 -7 -7 -7 -7 -7 -7 -6 -6 -6 -6 -5
-29 -26 -26 -26 -27 -26 -26 -26 -25 -22 -18 -16 -14 -14 -12 -11 -10 -10 -11 -11 -12 -13 -13 -13 -13 -13 -13 -13 -11 -12 -8 -7 -7 -7 -6 -6 -6 -6
-26 -25 -26 -26 -26 -25 -26 -25 -23 -21 -16 -12 -12 -11 -9 -9 -9 -10 -10 -11 -12 -12 -12 -13 -14 -14 -14 -13 -13 -13 -8 -8 -7 -6 -6 -6 -6 -7
-25 -25 -26 -25 -24 -24 -24 -23 -22 -15 -10 -10 -9 -7 -9 -9 -10 -10 -8 -9 -9 -11 -11 -13 -13 -14 -12 -12 -13 -11 -8 -7 -6 -8 -7 -8 -7 -6
-26 -25 -23 -21 -22 -22 -22 -22 -18 -16 -13 -10 -8 -9 -11 -11 -9 -8 -9 -10 -10 -11 -11 -12 -12 -12 -12 -13 -13 -11 -9 -7 -7 -8 -7 -7 -6 -7
-26 -24 -23 -20 -19 -20 -20 -21 -21 -21 -18 -18 -14 -13 -12 -10 -9 -10 -9 -10 -11 -12 -11 -11 -11 -11 -12 -13 -12 -12 -12 -10 -8 -8 -7 -7 -7 -7
-25 -25 -22 -19 -19 -17 -18 -19 -20 -21 -21 -18 -16 -14 -12 -11 -12 -12 -11 -11 -11 -10 -11 -10 -10 -11 -11 -13 -12 -12 -12 -12 -11 -9 -8 -8 -7 -7
-25 -24 -21 -17 -17 -16 -16 -17 -20 -19 -21 -19 -16 -14 -12 -12 -12 -12 -11 -10 -11 -11 -10 -10 -11 -10 -11 -10 -11 -13 -13 -12 -12 -11 -11 -10 -7 -8
-25 -23 -21 -20 -18 -19 -19 -18 -18 -15 -17 -14 -15 -14 -12 -12 -12 -11 -11 -11 -11 -11 -11 -11 -11 -11 -11 -11 -11 -12 -13 -12 -12 -11 -10 -10 -9 -8
-25 -24 -22 -20 -19 -19 -20 -20 -18 -15 -13 -14 -15 -14 -12 -12 -12 -11 -11 -11 -11 -11 -11 -11 -11 -11 -11 -11 -11 -12 -12 -12 -11 -10 -10 -11 -10 -10
-24 -24 -21 -19 -18 -19 -20 -18 -14 -14 -14 -15 -13 -11 -11 -11 -12 -12 -12 -12 -12 -12 -12 -12 -11 -11 -11 -11 -11 -12 -11 -11 -10 -10 -11 -11 -11 -10
-22 -21 -20 -19 -17 -16 -16 -17 -16 -15 -13 -12 -11 -11 -11 -11 -12 -12 -12 -12 -12 -13 -13 -13 -13 -12 -12 -12 -12 -12 -12 -10 -11 -11 -12 -10 -11 -11
-20 -20 -20 -18 -16 -15 -16 -16 -15 -13 -12 -11 -11 -12 -12 -11 -12 -12 -13 -11 -11 -12 -13 -13 -14 -13 -13 -13 -14 -13 -12 -12 -12 -12 -13 -12 -14 -14
-20 -20 -19 -17 -15 -15 -14 -13 -12 -11 -11 -11 -11 -11 -12 -12 -12 -12 -13 -13 -12 -12 -13 -13 -13 -13 -13 -14 -13 -13 -13 -13 -13 -13 -13 -13 -14 -15
-20 -20 -18 -16 -14 -13 -11 -10 -11 -11 -11 -12 -12 -12 -11 -12 -12 -12 -13 -12 -13 -13 -13 -13 -12 -12 -12 -12 -13 -13 -13 -13 -13 -13 -13 -13 -13 -14
-20 -20 -19 -15 -13 -12 -12 -11 -11 -11 -11 -11 -12 -11 -12 -12 -12 -12 -13 -13 -13 -13 -12 -13 -13 -12 -12 -12 -12 -14 -13 -13 -13 -13 -13 -13 -13 -14
-20 -20 -16 -13 -12 -12 -12 -11 -11 -11 -12 -12 -12 -12 -12 -12 -13 -12 -12 -13 -13 -12 -12 -13 -13 -12 -11 -12 -13 -14 -14 -14 -13 -13 -13 -12 -13 -12
-19 -19 -15 -12 -12 -12 -12 -13 -13 -12 -12 -12 -12 -12 -12 -12 -12 -12 -12 -12 -12 -12 -12 -13 -13 -12 -12 -12 -12 -13 -14 -14 -14 -14 -13 -13 -12 -12
-18 -18 -15 -12 -12 -12 -13 -14 -13 -13 -12 -12 -12 -12 -12 -12 -12 -12 -12 -12 -12 -12 -12 -11 -12 -12 -12 -12 -12 -12 -13 -14 -14 -13 -14 -14 -13 -13

GFSNE_850_dewp_186.txt.gz
Dewpoint
-15 -14 -15 -15 -14 -19 -27 -28 -28 -27 -22 -16 -16 -17 -21 -24 -25 -24 -21 -19 -18 -17 -16 -11 -12 -7 -5 -5 -4 -4 -4 -4 -4 -4 -5 -5 -5 -4
-15 -15 -15 -18 -27 -28 -27 -26 -26 -26 -25 -21 -18 -21 -23 -23 -21 -20 -19 -19 -19 -16 -14 -14 -13 -12 -6 -5 -5 -5 -4 -5 -5 -4 -6 -5 -6 -5
-16 -17 -25 -29 -28 -25 -26 -27 -27 -27 -26 -22 -22 -23 -22 -21 -19 -18 -20 -20 -18 -15 -14 -15 -15 -13 -7 -6 -6 -6 -6 -6 -5 -6 -6 -5 -4 -5
-18 -29 -28 -26 -25 -26 -27 -27 -27 -26 -26 -25 -24 -21 -18 -18 -18 -19 -21 -19 -15 -13 -13 -14 -13 -14 -14 -9 -7 -7 -7 -7 -7 -7 -5 -5 -5 -5
-30 -29 -26 -26 -27 -26 -26 -26 -26 -24 -23 -21 -20 -18 -18 -17 -20 -19 -19 -16 -14 -13 -13 -13 -13 -14 -14 -14 -10 -10 -13 -8 -7 -7 -7 -7 -6 -5
-27 -26 -26 -27 -26 -26 -26 -26 -24 -22 -21 -18 -18 -18 -17 -17 -16 -14 -17 -14 -14 -13 -13 -13 -13 -14 -15 -15 -15 -14 -13 -9 -8 -7 -6 -6 -6 -6
-24 -24 -26 -26 -26 -26 -25 -25 -25 -24 -22 -21 -19 -19 -18 -16 -14 -13 -12 -12 -13 -13 -12 -14 -13 -14 -14 -14 -14 -14 -9 -8 -7 -7 -7 -7 -7 -7
-26 -25 -24 -25 -25 -24 -24 -24 -23 -22 -21 -20 -19 -17 -16 -12 -12 -11 -10 -11 -11 -12 -13 -14 -13 -13 -13 -14 -14 -14 -10 -8 -7 -7 -7 -7 -7 -6
-24 -23 -24 -22 -22 -23 -22 -22 -21 -20 -19 -18 -17 -15 -14 -13 -10 -10 -11 -11 -11 -13 -12 -13 -13 -13 -13 -14 -13 -11 -8 -8 -9 -8 -8 -7 -7 -7
-24 -22 -21 -24 -25 -24 -21 -20 -20 -20 -21 -19 -15 -15 -13 -10 -10 -11 -11 -11 -12 -13 -13 -13 -12 -12 -13 -13 -13 -13 -9 -12 -11 -9 -8 -8 -7 -8
-22 -24 -25 -24 -23 -21 -21 -20 -21 -21 -21 -19 -16 -13 -13 -12 -11 -12 -12 -12 -13 -13 -12 -10 -11 -12 -13 -13 -13 -12 -12 -12 -12 -12 -10 -9 -8 -8
-24 -24 -25 -24 -20 -19 -19 -20 -22 -21 -21 -18 -15 -15 -15 -13 -12 -12 -12 -12 -12 -12 -12 -11 -12 -11 -11 -11 -11 -13 -13 -13 -13 -12 -11 -9 -9 -8
-24 -24 -23 -22 -20 -19 -19 -19 -17 -16 -16 -17 -17 -17 -16 -14 -13 -12 -12 -12 -11 -11 -12 -11 -11 -12 -11 -11 -12 -13 -13 -13 -13 -12 -10 -9 -11 -10
-22 -23 -22 -22 -21 -20 -19 -18 -18 -17 -16 -16 -16 -16 -16 -15 -13 -12 -12 -12 -11 -11 -11 -11 -11 -11 -11 -12 -12 -14 -14 -13 -13 -12 -10 -12 -12 -12
-20 -20 -20 -21 -21 -19 -17 -17 -17 -16 -16 -15 -13 -14 -14 -13 -13 -12 -12 -13 -13 -12 -12 -12 -12 -12 -12 -13 -13 -13 -12 -14 -13 -12 -13 -13 -14 -14
-19 -19 -19 -20 -20 -19 -16 -15 -15 -14 -13 -13 -13 -13 -13 -12 -12 -13 -12 -12 -13 -15 -14 -12 -12 -12 -13 -13 -13 -14 -13 -12 -13 -13 -13 -13 -14 -14
-17 -19 -19 -20 -20 -19 -16 -14 -14 -14 -15 -13 -12 -12 -13 -12 -12 -13 -12 -12 -12 -13 -14 -14 -13 -13 -12 -13 -14 -14 -14 -13 -13 -13 -13 -14 -15 -15
-16 -18 -20 -21 -20 -17 -14 -13 -14 -15 -14 -14 -13 -12 -12 -12 -12 -13 -12 -12 -13 -13 -13 -13 -13 -13 -13 -13 -13 -13 -14 -14 -14 -13 -13 -14 -14 -15
-15 -19 -21 -22 -19 -15 -13 -13 -14 -13 -13 -14 -13 -12 -12 -12 -12 -13 -13 -13 -13 -13 -13 -13 -13 -13 -12 -12 -12 -12 -13 -14 -13 -13 -13 -13 -13 -14
-14 -16 -21 -21 -18 -14 -13 -13 -13 -13 -13 -13 -12 -12 -12 -12 -12 -12 -13 -13 -13 -13 -13 -13 -14 -13 -12 -12 -12 -13 -13 -13 -13 -13 -13 -13 -13 -14
-14 -15 -19 -20 -19 -15 -12 -12 -13 -14 -14 -13 -12 -12 -12 -12 -12 -12 -12 -12 -13 -12 -13 -13 -13 -12 -12 -11 -12 -13 -14 -14 -13 -13 -13 -12 -13 -13
-13 -14 -16 -19 -19 -14 -12 -12 -12 -14 -14 -13 -13 -12 -12 -12 -12 -12 -12 -12 -12 -12 -12 -13 -13 -12 -13 -12 -12 -12 -13 -14 -14 -14 -14 -13 -12 -12
-13 -13 -14 -18 -18 -14 -11 -12 -12 -14 -14 -13 -12 -12 -12 -12 -12 -12 -12 -12 -12 -12 -12 -12 -12 -12 -12 -12 -12 -12 -13 -13 -13 -14 -15 -15 -14 -13

GFSNE_850_dewp_189.txt.gz
Dewpoint
-7 -9 -13 -14 -15 -14 -9 -11 -15 -19 -13 -12 -14 -13 -17 -21 -26 -25 -23 -23 -23 -24 -23 -20 -18 -17 -16 -13 -5 -5 -4 -4 -4 -4 -4 -4 -4 -4
-12 -15 -15 -15 -15 -20 -26 -27 -27 -26 -24 -21 -17 -17 -21 -25 -24 -22 -22 -23 -23 -23 -20 -17 -16 -16 -15 -10 -7 -6 -6 -5 -5 -4 -4 -4 -5 -5
-14 -15 -15 -19 -27 -26 -25 -26 -26 -27 -26 -22 -21 -23 -23 -23 -22 -22 -23 -23 -23 -20 -16 -15 -15 -15 -14 -14 -9 -6 -6 -6 -6 -6 -5 -5 -5 -5
-16 -18 -25 -27 -24 -25 -26 -27 -25 -25 -26 -26 -25 -22 -23 -22 -23 -23 -23 -22 -20 -16 -15 -15 -15 -14 -14 -14 -15 -11 -7 -7 -7 -7 -6 -6 -5 -5
-21 -28 -26 -24 -26 -27 -25 -25 -25 -26 -26 -27 -25 -23 -22 -22 -23 -24 -25 -23 -18 -15 -15 -15 -14 -14 -14 -14 -15 -15 -15 -14 -9 -7 -7 -6 -6 -5
-28 -26 -25 -26 -25 -25 -25 -26 -26 -26 -26 -25 -23 -23 -23 -22 -22 -21 -25 -20 -18 -15 -15 -15 -14 -14 -13 -13 -14 -14 -14 -12 -8 -7 -7 -6 -6 -7
-25 -24 -25 -24 -24 -25 -25 -25 -25 -24 -24 -23 -23 -25 -23 -23 -22 -19 -16 -16 -16 -14 -15 -14 -15 -14 -14 -13 -13 -14 -13 -9 -7 -7 -7 -6 -7 -7
-22 -23 -23 -24 -24 -26 -26 -25 -24 -23 -23 -23 -24 -23 -21 -19 -18 -16 -13 -13 -13 -14 -13 -15 -14 -14 -14 -13 -14 -14 -11 -8 -8 -7 -7 -7 -7 -7
-23 -22 -23 -23 -25 -24 -24 -22 -20 -21 -23 -24 -22 -20 -19 -16 -14 -13 -13 -13 -13 -13 -12 -14 -14 -14 -14 -14 -14 -14 -13 -8 -9 -9 -8 -8 -7 -7
-22 -22 -24 -25 -24 -25 -22 -20 -21 -22 -22 -23 -21 -19 -16 -14 -14 -13 -12 -12 -13 -13 -13 -13 -13 -14 -14 -14 -13 -13 -13 -9 -13 -13 -9 -8 -8 -8
-22 -23 -25 -25 -25 -24 -22 -21 -21 -21 -22 -20 -16 -14 -14 -15 -14 -12 -12 -13 -12 -13 -13 -12 -13 -13 -13 -14 -13 -13 -13 -13 -13 -13 -10 -9 -8 -8
-23 -24 -24 -23 -23 -23 -21 -21 -20 -21 -21 -19 -18 -18 -16 -15 -14 -13 -12 -12 -12 -12 -12 -11 -11 -12 -12 -12 -13 -14 -15 -17 -16 -14 -13 -11 -9 -9
-22 -22 -21 -22 -22 -21 -21 -20 -19 -19 -19 -18 -18 -17 -16 -16 -15 -14 -13 -12 -12 -12 -12 -11 -11 -12 -12 -12 -13 -14 -15 -15 -16 -16 -14 -11 -9 -10
-20 -20 -19 -19 -19 -20 -20 -19 -18 -17 -17 -16 -16 -17 -17 -16 -16 -15 -13 -13 -12 -12 -12 -12 -12 -12 -12 -12 -12 -14 -15 -15 -14 -15 -13 -13 -14 -14
-17 -17 -18 -19 -19 -20 -20 -19 -16 -15 -14 -15 -16 -16 -15 -15 -16 -15 -13 -13 -13 -12 -12 -14 -12 -12 -12 -12 -12 -14 -14 -14 -14 -14 -13 -13 -14 -14
-16 -17 -18 -18 -20 -21 -19 -17 -15 -14 -14 -15 -15 -15 -15 -15 -15 -13 -13 -13 -13 -13 -13 -13 -13 -13 -12 -12 -12 -14 -14 -13 -14 -14 -14 -14 -14 -14
-15 -16 -17 -20 -21 -21 -19 -16 -14 -13 -14 -15 -15 -15 -15 -14 -14 -13 -13 -13 -13 -13 -13 -13 -13 -13 -13 -13 -13 -14 -14 -14 -14 -13 -14 -14 -14 -14
-14 -15 -17 -20 -22 -21 -20 -17 -14 -13 -13 -13 -15 -16 -14 -13 -13 -13 -13 -12 -13 -13 -13 -13 -13 -13 -14 -14 -14 -13 -14 -14 -14 -13 -13 -13 -14 -14
-14 -14 -15 -17 -19 -21 -21 -17 -14 -13 -13 -14 -16 -15 -14 -13 -13 -13 -13 -13 -13 -13 -13 -13 -13 -13 -12 -12 -13 -13 -13 -13 -13 -13 -13 -14 -13 -14
-14 -14 -14 -14 -16 -19 -20 -18 -14 -13 -13 -14 -16 -15 -14 -13 -12 -12 -12 -12 -13 -13 -13 -13 -13 -13 -12 -12 -12 -13 -13 -13 -14 -13 -13 -13 -14 -15
-14 -13 -13 -13 -14 -16 -19 -18 -15 -13 -13 -13 -15 -14 -13 -12 -12 -12 -12 -12 -12 -12 -12 -13 -13 -13 -12 -12 -12 -13 -14 -14 -14 -12 -12 -12 -12 -13
-15 -14 -13 -13 -12 -16 -18 -18 -16 -13 -13 -13 -15 -14 -13 -13 -12 -12 -12 -12 -12 -12 -12 -13 -13 -13 -13 -12 -13 -14 -15 -15 -15 -14 -14 -13 -12 -12
-17 -15 -14 -13 -13 -15 -17 -17 -15 -12 -12 -12 -13 -14 -13 -13 -13 -12 -12 -12 -12 -12 -13 -13 -13 -13 -13 -13 -13 -13 -13 -14 -13 -14 -15 -15 -13 -12

GFSNE_850_dewp_192.txt.gz
Dewpoint
-8 -7 -8 -6 -5 -6 -5 -8 -8 -7 -8 -9 -9 -12 -12 -15 -20 -25 -25 -25 -26 -27 -25 -23 -20 -18 -17 -17 -17 -16 -12 -6 -4 -4 -4 -4 -4 -4
-8 -8 -7 -8 -9 -9 -9 -7 -7 -16 -18 -14 -14 -14 -16 -20 -25 -23 -23 -24 -25 -25 -24 -21 -18 -16 -16 -16 -16 -15 -10 -6 -5 -5 -5 -5 -4 -4
-5 -8 -14 -16 -17 -18 -17 -20 -26 -26 -25 -20 -19 -19 -22 -24 -23 -22 -24 -25 -26 -24 -21 -19 -16 -16 -16 -15 -15 -15 -14 -7 -6 -6 -6 -5 -5 -5
-14 -16 -17 -21 -26 -26 -25 -25 -25 -24 -26 -26 -25 -23 -24 -24 -25 -26 -27 -26 -26 -21 -19 -16 -16 -15 -15 -15 -15 -14 -15 -15 -13 -7 -7 -6 -6 -5
-14 -16 -20 -23 -22 -25 -25 -23 -24 -26 -27 -27 -26 -26 -26 -25 -27 -28 -27 -25 -22 -19 -17 -16 -15 -15 -15 -15 -15 -14 -14 -15 -14 -7 -7 -6 -6 -5
-22 -24 -23 -25 -25 -23 -23 -25 -27 -28 -27 -26 -27 -25 -26 -27 -27 -26 -28 -26 -25 -20 -17 -17 -16 -15 -15 -15 -14 -13 -14 -13 -8 -7 -7 -7 -6 -6
-24 -24 -25 -24 -23 -23 -26 -26 -26 -26 -26 -27 -27 -27 -26 -25 -24 -22 -22 -25 -26 -22 -20 -20 -18 -17 -16 -14 -14 -14 -14 -10 -8 -8 -7 -7 -7 -7
-22 -22 -21 -22 -23 -24 -24 -25 -25 -25 -25 -26 -26 -26 -23 -23 -23 -22 -21 -20 -21 -20 -17 -23 -17 -17 -16 -15 -14 -15 -14 -10 -8 -7 -8 -8 -7 -7
-21 -21 -21 -23 -24 -24 -24 -23 -23 -23 -24 -24 -24 -23 -23 -21 -21 -21 -19 -18 -17 -18 -14 -16 -16 -15 -15 -15 -14 -14 -14 -10 -8 -8 -9 -8 -8 -8
-21 -21 -23 -23 -24 -24 -22 -21 -21 -21 -22 -22 -22 -21 -21 -19 -17 -17 -16 -15 -17 -18 -14 -14 -14 -14 -15 -14 -15 -14 -14 -12 -13 -14 -11 -9 -8 -8
-20 -22 -23 -22 -23 -22 -20 -20 -20 -20 -20 -20 -20 -20 -19 -17 -15 -16 -15 -15 -15 -15 -15 -12 -13 -13 -13 -14 -14 -13 -14 -14 -16 -16 -15 -11 -9 -9
-21 -23 -23 -21 -20 -19 -19 -19 -20 -20 -20 -19 -18 -17 -17 -17 -16 -15 -14 -14 -13 -12 -13 -12 -11 -12 -12 -12 -13 -14 -14 -15 -16 -15 -15 -14 -10 -9
-22 -20 -19 -18 -18 -19 -20 -20 -21 -21 -20 -18 -16 -16 -16 -16 -16 -15 -15 -13 -13 -13 -13 -12 -12 -12 -12 -12 -13 -14 -14 -16 -15 -15 -14 -13 -13 -13
-18 -17 -17 -18 -18 -19 -20 -21 -21 -21 -18 -16 -16 -17 -17 -17 -17 -15 -15 -14 -13 -13 -13 -12 -12 -13 -13 -12 -13 -15 -14 -15 -14 -14 -14 -15 -14 -14
-16 -17 -17 -17 -18 -19 -20 -21 -21 -18 -17 -16 -16 -17 -17 -18 -18 -16 -16 -14 -14 -14 -13 -13 -13 -13 -13 -13 -13 -14 -14 -15 -14 -14 -14 -14 -15 -15
-15 -15 -15 -16 -17 -19 -20 -20 -20 -19 -16 -14 -14 -15 -16 -18 -19 -16 -14 -13 -13 -14 -14 -13 -13 -13 -13 -13 -13 -13 -14 -13 -14 -14 -13 -14 -14 -14
-14 -15 -15 -16 -17 -17 -18 -20 -20 -18 -15 -14 -13 -14 -16 -16 -15 -14 -13 -13 -13 -13 -14 -14 -14 -13 -13 -13 -13 -14 -14 -14 -14 -13 -13 -13 -14 -14
-15 -15 -15 -14 -15 -15 -16 -18 -20 -19 -16 -14 -13 -13 -15 -15 -14 -14 -14 -13 -13 -13 -13 -13 -14 -13 -14 -15 -14 -13 -14 -13 -13 -13 -14 -14 -14 -15
-15 -15 -14 -14 -13 -13 -13 -16 -19 -19 -16 -13 -13 -13 -14 -15 -15 -15 -14 -13 -13 -13 -13 -13 -13 -12 -12 -13 -14 -14 -13 -13 -14 -14 -14 -14 -13 -15
-16 -15 -14 -13 -13 -13 -12 -13 -18 -18 -16 -14 -13 -13 -14 -15 -16 -14 -13 -13 -13 -13 -13 -13 -13 -13 -12 -12 -13 -14 -14 -14 -14 -14 -14 -14 -14 -15
-17 -16 -15 -14 -13 -13 -12 -13 -14 -18 -19 -16 -13 -13 -13 -14 -15 -14 -13 -13 -12 -12 -12 -13 -14 -13 -12 -12 -13 -14 -15 -15 -15 -13 -13 -12 -12 -12
-18 -17 -16 -15 -13 -13 -13 -12 -13 -17 -19 -17 -13 -12 -12 -13 -14 -14 -13 -13 -12 -12 -13 -13 -14 -14 -13 -13 -13 -14 -14 -15 -15 -14 -14 -13 -12 -12
-20 -19 -17 -13 -12 -13 -13 -12 -12 -17 -18 -16 -12 -11 -11 -12 -14 -13 -13 -13 -13 -13 -13 -13 -13 -14 -14 -14 -14 -14 -14 -14 -14 -14 -15 -15 -13 -13

GFSNE_850_dewp_195.txt.gz
Dewpoint
4 3 3 3 1 -4 -5 -5 -6 -5 -6 -7 -7 -8 -9 -12 -14 -19 -25 -26 -25 -28 -29 -29 -25 -22 -20 -18 -18 -17 -17 -16 -11 -5 -4 -4 -4 -4
3 2 -1 -1 -7 -7 -5 -5 -5 -7 -8 -8 -9 -10 -12 -14 -20 -24 -25 -27 -27 -30 -28 -25 -22 -18 -17 -17 -17 -16 -16 -16 -15 -7 -5 -5 -5 -4
-5 -8 -9 -6 -7 -6 -5 -6 -6 -7 -11 -20 -17 -15 -15 -21 -23 -24 -25 -26 -30 -28 -26 -22 -19 -16 -16 -17 -16 -16 -16 -16 -16 -15 -10 -6 -5 -5
-8 -6 -5 -7 -11 -10 -8 -7 -12 -24 -25 -24 -20 -21 -24 -23 -24 -25 -28 -30 -28 -26 -23 -21 -17 -16 -16 -16 -16 -16 -16 -15 -15 -15 -8 -6 -6 -5
-5 -9 -14 -19 -22 -25 -24 -25 -24 -24 -25 -27 -27 -24 -24 -25 -27 -28 -28 -28 -26 -25 -25 -20 -17 -17 -17 -17 -17 -16 -15 -15 -14 -12 -7 -6 -6 -6
-16 -20 -22 -24 -24 -25 -24 -23 -26 -28 -27 -26 -26 -26 -27 -27 -27 -28 -28 -27 -27 -26 -24 -22 -21 -20 -19 -18 -16 -16 -15 -15 -14 -8 -7 -7 -7 -7
-19 -21 -23 -24 -23 -23 -26 -26 -24 -23 -24 -24 -25 -26 -25 -26 -25 -25 -24 -25 -25 -25 -24 -23 -22 -22 -19 -17 -16 -16 -15 -15 -10 -7 -8 -7 -8 -7
-23 -23 -24 -23 -24 -25 -23 -21 -20 -21 -22 -22 -23 -23 -23 -23 -22 -21 -21 -22 -23 -20 -23 -26 -22 -21 -19 -18 -17 -16 -15 -12 -8 -8 -7 -8 -8 -8
-22 -23 -21 -21 -21 -20 -18 -18 -18 -20 -21 -21 -22 -22 -21 -20 -20 -19 -19 -20 -20 -20 -18 -21 -20 -20 -19 -18 -17 -16 -10 -8 -10 -11 -12 -14 -9 -8
-18 -18 -21 -22 -20 -19 -19 -18 -19 -20 -20 -21 -21 -21 -19 -18 -18 -18 -18 -19 -20 -19 -16 -14 -16 -16 -19 -18 -18 -15 -10 -13 -14 -14 -15 -17 -13 -9
-20 -21 -20 -20 -20 -19 -19 -19 -19 -20 -21 -21 -21 -18 -17 -16 -17 -17 -17 -18 -18 -20 -17 -15 -13 -12 -11 -15 -15 -14 -13 -14 -15 -16 -17 -16 -12 -10
-20 -20 -20 -19 -19 -19 -18 -19 -20 -20 -21 -20 -18 -17 -17 -18 -18 -18 -17 -17 -15 -15 -15 -13 -12 -12 -12 -12 -13 -14 -14 -15 -15 -16 -15 -15 -14 -13
-21 -20 -19 -19 -18 -18 -19 -20 -20 -20 -20 -19 -18 -18 -18 -18 -18 -18 -16 -15 -15 -14 -13 -12 -12 -12 -13 -13 -12 -13 -14 -15 -15 -15 -15 -15 -15 -14
-19 -17 -17 -17 -18 -17 -18 -18 -19 -19 -19 -18 -18 -18 -17 -17 -18 -18 -16 -16 -15 -14 -13 -13 -13 -13 -13 -13 -13 -13 -14 -15 -14 -15 -14 -14 -15 -15
-16 -17 -16 -16 -16 -15 -16 -17 -18 -19 -19 -19 -18 -16 -16 -16 -16 -17 -17 -15 -15 -15 -14 -13 -13 -13 -13 -13 -13 -13 -14 -14 -15 -14 -14 -14 -14 -15
-16 -15 -15 -15 -14 -15 -16 -17 -17 -18 -19 -18 -18 -17 -16 -16 -16 -16 -17 -16 -17 -17 -15 -13 -13 -13 -13 -13 -13 -14 -14 -13 -14 -14 -13 -14 -14 -15
-15 -15 -16 -15 -14 -14 -15 -15 -15 -17 -19 -19 -17 -16 -14 -14 -15 -16 -17 -16 -15 -14 -14 -14 -13 -13 -13 -14 -14 -14 -14 -14 -14 -14 -14 -15 -15 -15
-16 -16 -16 -15 -13 -13 -13 -13 -13 -15 -18 -19 -18 -16 -15 -14 -15 -15 -16 -14 -14 -14 -14 -14 -14 -13 -14 -15 -15 -14 -15 -15 -14 -14 -15 -14 -15 -16
-16 -16 -15 -14 -13 -13 -12 -12 -12 -13 -14 -18 -19 -17 -15 -14 -13 -14 -14 -14 -14 -14 -14 -14 -13 -13 -13 -13 -15 -15 -13 -14 -14 -15 -15 -15 -14 -15
-16 -16 -16 -15 -15 -13 -11 -12 -12 -12 -12 -15 -19 -17 -14 -12 -12 -12 -13 -14 -14 -14 -13 -13 -14 -13 -13 -13 -13 -15 -15 -14 -14 -14 -15 -15 -15 -15
-17 -17 -17 -18 -17 -13 -11 -12 -13 -13 -12 -13 -18 -16 -12 -11 -11 -12 -12 -14 -14 -13 -14 -14 -14 -13 -13 -13 -14 -15 -16 -15 -15 -14 -14 -13 -12 -12
-18 -19 -19 -19 -18 -13 -11 -10 -14 -13 -12 -13 -16 -16 -12 -11 -11 -11 -12 -13 -14 -14 -13 -13 -13 -14 -14 -14 -14 -14 -15 -15 -15 -15 -15 -14 -12 -12
-20 -20 -20 -19 -18 -15 -11 -10 -13 -14 -12 -12 -16 -16 -13 -11 -11 -11 -12 -13 -14 -13 -13 -13 -13 -14 -14 -14 -14 -14 -14 -14 -14 -14 -16 -15 -14 -14